CW5183 Weather Reports


time (UTC)temp
C
wind
direction
speed
KPH
gust
KPH
rain 1hr
cm
rain 24hr
cm
rain mn
cm
humidity
%
barometer
mb
20260503213021 18 237 20.9 43.5 0.00 0.00 0.00 44 1008.2
20260503211512 18 175 11.3 40.2 0.00 0.00 0.00 43 1008.5
20260503210011 18 192 16.1 35.4 0.00 0.00 0.00 45 1008.7
20260503204505 17 225 19.3 41.8 0.00 0.00 0.00 44 1009.0
20260503203002 17 331 25.7 46.7 0.00 0.00 0.00 45 1009.1
20260503201600 17 197 19.3 37.0 0.00 0.00 0.00 48 1009.5
20260503200058 16 232 24.1 38.6 0.00 0.00 0.00 48 1009.7
20260503194614 16 189 22.5 35.4 0.00 0.00 0.00 55 1009.9
20260503193052 15 202 20.9 51.5 0.00 0.00 0.00 55 1010.1
20260503191557 15 175 16.1 41.8 0.00 0.00 0.00 54 1010.5
20260503190051 13 183 14.5 37.0 0.00 0.00 0.00 59 1010.7
20260503184545 13 179 17.7 30.6 0.00 0.00 0.00 61 1010.9
20260503183052 12 190 17.7 37.0 0.00 0.00 0.00 63 1011.3
20260503181557 12 173 12.9 38.6 0.00 0.00 0.00 64 1012.0
20260503180049 12 220 14.5 33.8 0.00 0.00 0.00 64 1012.7
20260503174547 12 209 16.1 33.8 0.00 0.00 0.00 66 1013.1
20260503173042 11 189 19.3 35.4 0.00 0.00 0.00 68 1013.6
20260503171540 11 233 16.1 35.4 0.00 0.00 0.00 71 1013.9
20260503081543 8 246 4.8 16.1 0.00 0.00 0.00 58 1016.1
20260503071534 8 205 6.4 20.9 0.00 0.00 0.00 55 1016.3
20260503054533 9 217 4.8 16.1 0.00 0.00 0.00 54 1017.1
20260503053022 9 213 4.8 16.1 0.00 0.00 0.00 55 1017.3
20260503051520 9 201 6.4 11.3 0.00 0.00 0.00 55 1017.4
20260503050019 9 240 3.2 11.3 0.00 0.00 0.00 55 1017.4
20260503044518 9 228 6.4 11.3 0.00 0.00 0.00 54 1017.5
20260503043018 10 216 4.8 12.9 0.00 0.00 0.00 54 1017.5
20260503041518 10 207 4.8 19.3 0.00 0.00 0.00 53 1017.5
20260503040027 10 218 3.2 14.5 0.00 0.00 0.00 53 1017.6
20260503034515 10 178 4.8 11.3 0.00 0.00 0.00 53 1017.7
20260503033014 10 209 6.4 11.3 0.00 0.00 0.00 52 1017.7
20260503031514 10 211 3.2 11.3 0.00 0.00 0.00 52 1017.9
20260503030014 10 191 4.8 11.3 0.00 0.00 0.00 51 1018.0
20260503024513 10 199 3.2 11.3 0.00 0.00 0.00 51 1018.0
20260503023014 10 209 1.6 9.7 0.00 0.00 0.00 51 1018.0
20260503021516 10 200 3.2 8.0 0.00 0.00 0.00 52 1017.9
20260503020012 10 184 3.2 8.0 0.00 0.00 0.00 57 1017.7
20260503014511 10 131 0.0 4.8 0.00 0.00 0.00 62 1017.8
20260503013011 10 122 0.0 3.2 0.00 0.00 0.00 64 1017.7
20260503011523 10 122 0.0 6.4 0.00 0.00 0.00 64 1017.8
20260503010010 10 113 1.6 6.4 0.00 0.00 0.00 63 1017.7
20260503004508 10 114 0.0 6.4 0.00 0.00 0.00 60 1017.8
20260503003008 11 112 0.0 3.2 0.00 0.00 0.00 60 1017.9
20260503001508 11 146 3.2 11.3 0.00 0.00 0.00 61 1018.0
20260503000010 11 123 4.8 8.0 0.00 0.00 0.00 61 1017.9
20260502234520 10 135 0.0 8.0 0.00 0.00 0.00 62 1018.1
20260502233005 10 118 3.2 9.7 0.00 0.00 0.00 64 1018.2
20260502231505 10 83 8.0 14.5 0.00 0.00 0.00 63 1018.3
20260502230005 10 92 6.4 16.1 0.00 0.00 0.00 59 1018.3
20260502224502 10 107 4.8 16.1 0.00 0.00 0.00 60 1018.6
20260502223002 10 138 6.4 11.3 0.00 0.00 0.00 60 1018.6
20260502221605 10 111 3.2 14.5 0.00 0.00 0.00 61 1018.6
20260502220146 10 98 8.0 14.5 0.00 0.00 0.00 58 1018.7
20260502214602 10 106 4.8 12.9 0.00 0.00 0.00 56 1018.7